sat.trackr.live / text

‹ back to catalog

YAOGAN-40 02C

NORAD 63920 · 2025-096C

PAYLOAD ACTIVE UNKNOWN

§ Identity

Operator
Country
PRC
Launch date
2025-05-11
Launch site
TAISC
Launch vehicle
Mass (kg)
RCS (m²)

External: N2YO · Heavens-Above · Gunter

§ Orbital elements

Epoch: 2026-05-25T04:28:17.907168Z

Period
101.95 min
Inclination
85.9971°
Eccentricity
0.0002465
Mean motion
14.12443318 rev/d
Perigee alt
849.2 km
Apogee alt
852.8 km
Semi-major
7,229.2 km
B*
5.8057e-5
RAAN
197.5177°
Arg perigee
101.0886°
Mean anomaly
259.0575°
Rev number
7,216

§ Raw data

YAOGAN-40 02C1 63920U 25096C   26145.18631837  .00000126  00000+0  58057-4 0  99942 63920  85.9971 197.5177 0002465 101.0886 259.0575 14.12443318 72169

JSON: /api/v1/satellites/63920 · /tle

For live sub-satellite position, see the globe view (requires WebGL).

§ Visibility from observer

Set your observer location to see the next 7 days of passes ≥ 10°. The values pass through the URL so the page stays shareable.

No JS? Fill the form by hand. The geolocation button needs JavaScript.